Location: Newark
(33.6439°N, 114.9881°W)
Time: 06:48:17
(UTC+00:00)

Tiros 1 - Pass Details

Date: 26 July 2019
Orbit: 631 x 664 km, 48.4° (Epoch: 24 August)

Event Time Altitude Azimuth Distance (km) Brightness Sun altitude
Rises 21:13:51 0° 310° (NW) 2,994 10.7 65.9°
Reaches altitude 10° 21:17:17 10° 335° (NNW) 2,082 9.9 65.3°
Maximum altitude 21:19:54 14° 8° (N) 1,803 9.5 64.8°
Drops below altitude 10° 21:22:31 10° 41° (NE) 2,081 9.6 64.3°
Sets 21:25:56 0° 66° (ENE) 2,989 10.3 63.7°
